TimeMDT,TemperatureF,Dew PointF,Humidity,Sea Level PressureIn,VisibilityMPH,Wind Direction,Wind SpeedMPH,Gust SpeedMPH,PrecipitationIn,Events,Conditions,WindDirDegrees,DateUTC
12:15 AM,50.0,21.2,32,30.24,10.0,South,8.1,-,N/A,,Clear,180,2012-10-15 06:15:00
12:35 AM,50.0,23.0,35,30.24,10.0,SSE,8.1,-,N/A,,Clear,160,2012-10-15 06:35:00
12:55 AM,50.0,23.0,35,30.23,10.0,SSW,12.7,-,N/A,,Clear,200,2012-10-15 06:55:00
1:15 AM,50.0,23.0,35,30.22,10.0,SSW,13.8,-,N/A,,Clear,210,2012-10-15 07:15:00
1:35 AM,50.0,23.0,35,30.22,10.0,South,13.8,-,N/A,,Clear,190,2012-10-15 07:35:00
1:55 AM,50.0,24.8,37,30.22,10.0,SSW,13.8,-,N/A,,Clear,210,2012-10-15 07:55:00
2:15 AM,50.0,23.0,35,30.20,10.0,SSW,18.4,21.9,N/A,,Clear,200,2012-10-15 08:15:00
2:35 AM,50.0,23.0,35,30.21,10.0,SSW,18.4,27.6,N/A,,Clear,200,2012-10-15 08:35:00
2:55 AM,50.0,26.6,40,30.20,10.0,SSW,21.9,28.8,N/A,,Clear,210,2012-10-15 08:55:00
3:15 AM,50.0,28.4,43,30.19,10.0,SSW,15.0,20.7,N/A,,Clear,210,2012-10-15 09:15:00
3:35 AM,50.0,28.4,43,30.18,10.0,South,19.6,26.5,N/A,,Scattered Clouds,190,2012-10-15 09:35:00
3:55 AM,50.0,28.4,43,30.17,10.0,SSW,23.0,29.9,N/A,,Clear,200,2012-10-15 09:55:00
4:15 AM,50.0,26.6,40,30.17,10.0,South,11.5,-,N/A,,Clear,170,2012-10-15 10:15:00
4:35 AM,51.8,24.8,35,30.16,10.0,South,20.7,26.5,N/A,,Clear,190,2012-10-15 10:35:00
4:55 AM,50.0,26.6,40,30.17,10.0,South,11.5,-,N/A,,Scattered Clouds,190,2012-10-15 10:55:00
5:15 AM,51.8,26.6,38,30.16,10.0,SW,25.3,33.4,N/A,,Scattered Clouds,220,2012-10-15 11:15:00
5:35 AM,50.0,26.6,40,30.16,10.0,SSE,8.1,26.5,N/A,,Clear,160,2012-10-15 11:35:00
5:55 AM,48.2,28.4,46,30.15,10.0,South,12.7,17.3,N/A,,Clear,170,2012-10-15 11:55:00
6:15 AM,48.2,28.4,46,30.16,10.0,SW,13.8,-,N/A,,Clear,220,2012-10-15 12:15:00
6:35 AM,50.0,28.4,43,30.16,10.0,SW,10.4,-,N/A,,Clear,220,2012-10-15 12:35:00
6:55 AM,50.0,28.4,43,30.16,10.0,SW,9.2,-,N/A,,Clear,220,2012-10-15 12:55:00
7:15 AM,50.0,28.4,43,30.16,10.0,WSW,12.7,18.4,N/A,,Clear,250,2012-10-15 13:15:00
7:35 AM,50.0,28.4,43,30.15,10.0,SW,12.7,21.9,N/A,,Clear,230,2012-10-15 13:35:00
7:55 AM,48.2,28.4,46,30.15,10.0,SSE,6.9,-,N/A,,Clear,160,2012-10-15 13:55:00
8:15 AM,46.4,28.4,50,30.15,10.0,SE,4.6,-,N/A,,Clear,140,2012-10-15 14:15:00
8:35 AM,46.4,28.4,50,30.15,10.0,South,13.8,17.3,N/A,,Clear,190,2012-10-15 14:35:00
8:55 AM,50.0,28.4,43,30.14,10.0,South,8.1,21.9,N/A,,Clear,170,2012-10-15 14:55:00
9:15 AM,46.4,28.4,50,30.15,10.0,South,6.9,-,N/A,,Clear,170,2012-10-15 15:15:00
9:35 AM,44.6,30.2,57,30.15,10.0,SE,11.5,-,N/A,,Clear,140,2012-10-15 15:35:00
9:55 AM,44.6,30.2,57,30.14,10.0,SSE,10.4,21.9,N/A,,Clear,160,2012-10-15 15:55:00
10:15 AM,51.8,26.6,38,30.14,10.0,SSW,21.9,32.2,N/A,,Clear,210,2012-10-15 16:15:00
10:35 AM,50.0,26.6,40,30.15,10.0,SW,24.2,35.7,N/A,,Clear,220,2012-10-15 16:35:00
10:55 AM,51.8,26.6,38,30.14,10.0,SW,25.3,33.4,N/A,,Clear,220,2012-10-15 16:55:00
11:15 AM,50.0,26.6,40,30.13,10.0,SSW,20.7,31.1,N/A,,Clear,200,2012-10-15 17:15:00
11:35 AM,51.8,26.6,38,30.12,10.0,SSW,27.6,35.7,N/A,,Clear,200,2012-10-15 17:35:00
12:15 PM,55.4,26.6,33,30.12,10.0,SW,28.8,40.3,N/A,,Clear,230,2012-10-15 18:15:00
12:35 PM,55.4,26.6,33,30.11,10.0,SW,23.0,33.4,N/A,,Clear,230,2012-10-15 18:35:00
12:55 PM,59.0,26.6,29,30.10,10.0,SW,17.3,26.5,N/A,,Clear,220,2012-10-15 18:55:00
1:15 PM,55.4,28.4,36,30.09,10.0,SSE,9.2,25.3,N/A,,Scattered Clouds,150,2012-10-15 19:15:00
1:35 PM,50.0,28.4,43,30.08,10.0,SE,8.1,-,N/A,,Mostly Cloudy,140,2012-10-15 19:35:00
1:55 PM,51.8,28.4,41,30.08,10.0,SE,6.9,-,N/A,,Overcast,130,2012-10-15 19:55:00
2:15 PM,51.8,28.4,41,30.08,10.0,South,10.4,-,N/A,,Overcast,170,2012-10-15 20:15:00
2:35 PM,53.6,28.4,38,30.08,10.0,South,12.7,-,N/A,,Overcast,180,2012-10-15 20:35:00
2:55 PM,53.6,28.4,38,30.07,10.0,South,17.3,25.3,N/A,,Overcast,180,2012-10-15 20:55:00
3:15 PM,53.6,28.4,38,30.07,10.0,South,18.4,36.8,N/A,,Overcast,170,2012-10-15 21:15:00
3:35 PM,53.6,30.2,41,30.05,10.0,SW,39.1,48.3,N/A,,Mostly Cloudy,230,2012-10-15 21:35:00
3:55 PM,53.6,32.0,44,30.06,10.0,SW,35.7,49.5,N/A,,Scattered Clouds,220,2012-10-15 21:55:00
4:15 PM,53.6,32.0,44,30.06,10.0,SW,31.1,39.1,N/A,,Clear,230,2012-10-15 22:15:00
4:35 PM,53.6,32.0,44,30.06,10.0,SW,31.1,39.1,N/A,,Scattered Clouds,230,2012-10-15 22:35:00
4:55 PM,53.6,32.0,44,30.07,10.0,WSW,32.2,41.4,N/A,,Scattered Clouds,240,2012-10-15 22:55:00
5:15 PM,53.6,32.0,44,30.07,10.0,WSW,26.5,42.6,N/A,,Mostly Cloudy,240,2012-10-15 23:15:00
5:35 PM,53.6,32.0,44,30.07,10.0,WSW,29.9,38.0,N/A,,Scattered Clouds,240,2012-10-15 23:35:00
5:55 PM,53.6,30.2,41,30.08,10.0,WSW,17.3,32.2,N/A,,Clear,240,2012-10-15 23:55:00
6:15 PM,51.8,32.0,47,30.08,10.0,WSW,21.9,-,N/A,,Clear,240,2012-10-16 00:15:00
6:35 PM,50.0,30.2,47,30.09,10.0,West,17.3,27.6,N/A,,Clear,270,2012-10-16 00:35:00
6:55 PM,50.0,26.6,40,30.10,10.0,NW,13.8,-,N/A,,Clear,320,2012-10-16 00:55:00
7:15 PM,50.0,23.0,35,30.10,10.0,NNW,6.9,-,N/A,,Clear,330,2012-10-16 01:15:00
7:35 PM,51.8,24.8,35,30.10,10.0,North,3.5,-,N/A,,Scattered Clouds,350,2012-10-16 01:35:00
7:55 PM,51.8,26.6,38,30.10,10.0,NNW,3.5,-,N/A,,Mostly Cloudy,330,2012-10-16 01:55:00
8:15 PM,51.8,28.4,41,30.10,10.0,North,8.1,-,N/A,,Scattered Clouds,350,2012-10-16 02:15:00
8:35 PM,51.8,28.4,41,30.10,10.0,North,5.8,-,N/A,,Scattered Clouds,350,2012-10-16 02:35:00
8:55 PM,51.8,28.4,41,30.09,10.0,Calm,Calm,-,N/A,,Clear,0,2012-10-16 02:55:00
9:15 PM,51.8,28.4,41,30.10,10.0,Calm,Calm,-,N/A,,Scattered Clouds,0,2012-10-16 03:15:00
9:35 PM,50.0,28.4,43,30.08,10.0,Calm,Calm,-,N/A,,Mostly Cloudy,0,2012-10-16 03:35:00
9:55 PM,50.0,28.4,43,30.10,10.0,Calm,Calm,-,N/A,,Mostly Cloudy,0,2012-10-16 03:55:00
10:15 PM,51.8,28.4,41,30.10,10.0,Calm,Calm,-,N/A,,Scattered Clouds,0,2012-10-16 04:15:00
10:35 PM,50.0,28.4,43,30.10,10.0,ESE,3.5,-,N/A,,Scattered Clouds,110,2012-10-16 04:35:00
10:55 PM,50.0,28.4,43,30.09,10.0,SSE,5.8,-,N/A,,Clear,160,2012-10-16 04:55:00
11:15 PM,48.2,30.2,50,30.08,10.0,SW,10.4,-,N/A,,Clear,230,2012-10-16 05:15:00
11:35 PM,48.2,32.0,54,30.08,10.0,SW,17.3,23.0,N/A,,Clear,220,2012-10-16 05:35:00
11:55 PM,50.0,32.0,50,30.07,10.0,SW,20.7,26.5,N/A,,Clear,220,2012-10-16 05:55:00